Kitakyushu, Japan

9:20 PM JST on September 24, 2017 (GMT +0900)
Kitakyushu

Weather History for RJFR - July, 2017

Change the Weather History Date:

Monday, July 17, 2017

  Actual Average Record
Temperature  
Mean Temperature 86 °F -  
Max Temperature 93 °F 83 °F 93 °F (2017)
Min Temperature 80 °F 76 °F 66 °F (2015)
Cooling Degree Days 22    
Growing Degree Days 36 (Base 50)    
Moisture  
Dew Point 72 °F    
Average Humidity 63    
Maximum Humidity 79    
Minimum Humidity 49    
Precipitation  
Precipitation 0.00 in - - ()
Sea Level Pressure  
Sea Level Pressure 29.90 in    
Wind  
Wind Speed 7 mph ()    
Max Wind Speed 17 mph    
Max Gust Speed -    
Visibility 6.2 miles    
Events      
Averages and records for this station are not official NWS values.
T = Trace of Precipitation, MM = Missing Value Source: Averaged Metar Reports

Daily Weather History Graph

Daily Weather History Graph

Search for Another Location

Airport or City:

Trip Planner

Search our weather history database for the weather conditions in past years. The results will help you decide how hot, cold, wet, or windy it might be!

Date:

Astronomy

Jul. 17, 2017 Rise Set
Actual Time 5:17 AM JST 7:26 PM JST
Civil Twilight 4:48 AM JST 7:54 PM JST
Nautical Twilight 4:14 AM JST 8:29 PM JST
Astronomical Twilight 3:36 AM JST 9:06 PM JST
Moon No Moon Rise 12:47 PM JST (7/17)
Length of Visible Light 15h 06m
Length of Day
14h 09m
Waning Gibbous, 46% of the Moon is Illuminated
Jul 17
Waning Gibbous
Jul 23
New
Jul 31
First Quarter
Aug 8
Full
Aug 15
Last Quarter

Hourly Weather History & Observations

Time (JST) Temp. Heat Index Dew Point Humidity Pressure Visibility Wind Dir Wind Speed Gust Speed Precip Events Conditions
12:00 AM 84.2 °F 89.6 °F 71.6 °F 66% 29.92 in 6.2 mi NNW 2.3 mph - N/A   Partly Cloudy
1:00 AM 82.4 °F 87.2 °F 71.6 °F 70% 29.92 in 6.2 mi SW 4.6 mph - N/A   Partly Cloudy
2:00 AM 82.4 °F 88.2 °F 73.4 °F 74% 29.92 in 6.2 mi West 3.5 mph - N/A   Partly Cloudy
3:00 AM 82.4 °F 88.2 °F 73.4 °F 74% 29.92 in 6.2 mi West 5.8 mph - N/A   Partly Cloudy
4:00 AM 80.6 °F 85.4 °F 73.4 °F 79% 29.92 in 6.2 mi WSW 8.1 mph - N/A   Partly Cloudy
5:00 AM 80.6 °F 84.6 °F 71.6 °F 74% 29.92 in 6.2 mi WSW 5.8 mph - N/A   Partly Cloudy
6:00 AM 80.6 °F 84.6 °F 71.6 °F 74% 29.92 in 6.2 mi SSW 3.5 mph - N/A   Partly Cloudy
7:00 AM 82.4 °F 86.3 °F 69.8 °F 66% 29.92 in 6.2 mi Variable 2.3 mph - N/A   Partly Cloudy
8:00 AM 86.0 °F 91.8 °F 71.6 °F 62% 29.92 in 6.2 mi WSW 8.1 mph - N/A   Partly Cloudy
9:00 AM 87.8 °F 93.8 °F 71.6 °F 58% 29.92 in 6.2 mi West 13.8 mph - N/A   Partly Cloudy
10:00 AM 87.8 °F 92.6 °F 69.8 °F 55% 29.92 in 6.2 mi West 16.1 mph - N/A   Scattered Clouds
11:00 AM 89.6 °F 94.7 °F 69.8 °F 52% 29.92 in 6.2 mi WSW 10.4 mph - N/A   Scattered Clouds
12:00 PM 91.4 °F 96.8 °F 69.8 °F 49% 29.92 in 6.2 mi WSW 8.1 mph - N/A   Mostly Cloudy
1:00 PM 91.4 °F 98.4 °F 71.6 °F 52% 29.89 in 6.2 mi West 10.4 mph - N/A   Scattered Clouds
2:00 PM 91.4 °F 100.1 °F 73.4 °F 55% 29.89 in 6.2 mi NW 15.0 mph - N/A   Partly Cloudy
3:00 PM 93.2 °F 100.5 °F 71.6 °F 49% 29.86 in 6.2 mi WNW 12.7 mph - N/A   Partly Cloudy
4:00 PM 91.4 °F 96.8 °F 69.8 °F 49% 29.86 in 6.2 mi WNW 12.7 mph - N/A   Partly Cloudy
5:00 PM 89.6 °F 98.2 °F 73.4 °F 59% 29.86 in 6.2 mi NW 15.0 mph - N/A   Partly Cloudy
6:00 PM 87.8 °F 95.6 °F 73.4 °F 62% 29.86 in 6.2 mi NW 13.8 mph - N/A   Partly Cloudy
7:00 PM 87.8 °F 93.8 °F 71.6 °F 58% 29.86 in 6.2 mi West 12.7 mph - N/A   Partly Cloudy
8:00 PM 86.0 °F 91.8 °F 71.6 °F 62% 29.89 in 6.2 mi West 17.3 mph - N/A   Partly Cloudy
9:00 PM 84.2 °F 90.9 °F 73.4 °F 70% 29.89 in 6.2 mi West 17.3 mph - N/A   Partly Cloudy
10:00 PM 84.2 °F 90.9 °F 73.4 °F 70% 29.89 in 6.2 mi West 16.1 mph - N/A   Partly Cloudy
11:00 PM 84.2 °F 90.9 °F 73.4 °F 70% 29.89 in 6.2 mi West 10.4 mph - N/A   Partly Cloudy